Other Public Products
Issued by NWS Charleston, SC

Home | Current Version | Previous Version | Text Only | Print | Product List | Glossary On
Versions: 1 2 3 4 5 6 7 8 9 10 11 12 13 14 15 16 17 18 19 20 21 22 23 24 25 26 27 28 29 30 31 32 33 34 35 36 37 38 39 40 41 42 43 44 45 46 47 48 49 50
006
FPUS82 KCHS 210727
OPUCHS

TEST...KCHS/KSAV Gateway Observations...TEST
National Weather Service Charleston SC
200 AM EST TUE FEB 21 2017

NOTE: "fair" indicates few or no clouds below 12,000 feet with no
significant weather and/or obstructions to visibility.

SCZ050-WAZ558-NCZ071-TXZ119-213-PAZ071-DCZ001-FLZ074-172-MI076-
NYZ176-178-MAZ016-IL014-TNZ027-NJZ106-GAZ044-MD014-210800-
...Gateway Observations for Charleston International...

CITY           SKY/WX    TMP DP  RH WIND       PRES   REMARKS
Chas Airport   CLOUDY    54  52  93 CALM      30.17S FOG
Seattle        CLOUDY    44  41  89 SE5       29.72S
Charlotte      CLOUDY    57  41  55 E5        30.20R
Dallas DFW     CLEAR     57  55  93 SW6       29.90R
Dallas Love    CLEAR     56  54  93 CALM      29.92R
Philladelphia  CLOUDY    38  16  40 NE5       30.35F WCI  34
Wash National  MOCLDY    48  24  39 NE8       30.33R
Baltimore      PTCLDY    42  21  43 E8        30.33R
Miami          PTCLDY    68  59  73 E6        30.06S
Detroit        CLOUDY    39  31  72 E3        30.07F
Newark         PTCLDY    34  16  47 NE9       30.37S WCI  27
Laguardia      PTCLDY    39  12  33 NE7       30.37S WCI  34
J F K          PTCLDY    35  14  42 N8        30.38S WCI  29
Boston Logan   CLEAR     31  16  54 N7        30.36F WCI  24
Ft. Lauderdale PTCLDY    72  58  61 E9        30.05F
Chicago O`Hare CLOUDY    61  46  57 S14G23    29.89F
Chicago Midway CLOUDY    60  45  57 S15       29.91F
Houston Bush   PTCLDY    58  57  97 S5        29.98S FOG
Houston Hobby  PTCLDY    56  56 100 S3        29.98S FOG
Nashville      CLOUDY    58  44  60 SE6       30.02S
Atlanta        CLOUDY    57  46  66 E6        30.12S

$$

GAZ044-118-TXZ119-213-NCZ071-DCZ001-MDZ014-506-PAZ021-071-NJZ106-
NYZ176-178-MAZ106-OHZ011-021-055-MIZ076-KYZ091-ILZ014-INZ047-
MNZ060-210800-
...Gateway Observations for Savannah International...

CITY           SKY/WX    TMP DP  RH WIND       PRES   REMARKS
Savannah Arpt  CLOUDY    55  53  93 CALM      30.16R
Atlanta        CLOUDY    57  46  66 E6        30.12S
Charlotte      CLOUDY    57  41  55 E5        30.20R
Dallas DFW     CLEAR     57  55  93 SW6       29.90R
Houston Bush   PTCLDY    58  57  97 S5        29.98S FOG
Wash National  MOCLDY    48  24  39 NE8       30.33R
Wash Dulles    MOCLDY    40  28  62 NE5       30.32R WCI  37
Baltimore      PTCLDY    42  21  43 E8        30.33R
Philadelphia   CLOUDY    38  16  40 NE5       30.35F WCI  34
Newark         PTCLDY    34  16  47 NE9       30.37S WCI  27
Laguardia      PTCLDY    39  12  33 NE7       30.37S WCI  34
J F K          PTCLDY    35  14  42 N8        30.38S WCI  29
Boston         CLEAR     31  16  54 N7        30.36F WCI  24
Pittsburg      MOCLDY    47  32  56 E7        30.12F
Akron          CLOUDY    49  30  48 SE8       30.09F
Cleveland      CLOUDY    49  31  49 SE9       30.10F
Cincinnati     CLOUDY    53  39  59 SE7       30.03F
Columbus       CLOUDY    43  40  91 CALM      30.06S
Detroit        CLOUDY    39  31  72 E3        30.07F
Chicago O`Hare CLOUDY    61  46  57 S14G23    29.89F
Minneapolis    CLOUDY    40  36  86 W10       29.85R WCI  33
Indianapolis   CLOUDY    55  46  71 SE12      29.98F

$$




USA.gov is the U.S. government's official web portal to all federal, state and local government web resources and services.